TimeWITA,TemperatureF,Dew PointF,Humidity,Sea Level PressureIn,VisibilityMPH,Wind Direction,Wind SpeedMPH,Gust SpeedMPH,PrecipitationIn,Events,Conditions,WindDirDegrees,DateUTC
12:00 AM,75.2,73.4,94,29.83,5.6,SSE,2.3,-,N/A,,Partly Cloudy,150,2013-09-16 16:00:00
12:30 AM,73.4,73.4,100,29.80,5.6,Calm,Calm,-,N/A,,Partly Cloudy,0,2013-09-16 16:30:00
1:00 AM,73.4,73.4,100,29.80,5.6,SE,1.2,-,N/A,,Partly Cloudy,130,2013-09-16 17:00:00
1:30 AM,73.4,73.4,100,29.80,5.6,SE,1.2,-,N/A,,Partly Cloudy,130,2013-09-16 17:30:00
2:00 AM,73,72,96,29.81,6,NE,2.3,,,,Scattered Clouds,50,2013-09-16 18:00:00
2:00 AM,73.4,71.6,94,29.80,5.6,SE,2.3,-,N/A,,Partly Cloudy,130,2013-09-16 18:00:00
2:30 AM,73.4,71.6,94,29.80,5.6,SE,2.3,-,N/A,,Partly Cloudy,130,2013-09-16 18:30:00
3:00 AM,73.4,71.6,94,29.80,5.6,Calm,Calm,-,N/A,,Partly Cloudy,0,2013-09-16 19:00:00
3:30 AM,73.4,71.6,94,29.80,5.6,Calm,Calm,-,N/A,,Partly Cloudy,0,2013-09-16 19:30:00
4:30 AM,73.4,71.6,94,29.80,5.6,Calm,Calm,-,N/A,,Partly Cloudy,0,2013-09-16 20:30:00
5:00 AM,73,71,93,29.80,6,SE,2.3,,,,Scattered Clouds,140,2013-09-16 21:00:00
5:00 AM,73.4,71.6,94,29.80,5.6,SE,2.3,-,N/A,,Partly Cloudy,140,2013-09-16 21:00:00
5:30 AM,73.4,71.6,94,29.80,6.2,SE,1.2,-,N/A,,Partly Cloudy,140,2013-09-16 21:30:00
6:00 AM,73.4,71.6,94,29.80,6.2,SE,2.3,-,N/A,,Partly Cloudy,140,2013-09-16 22:00:00
6:30 AM,75.2,73.4,94,29.83,6.2,East,1.2,-,N/A,,Partly Cloudy,100,2013-09-16 22:30:00
7:00 AM,77.0,73.4,89,29.83,6.2,SSE,3.5,-,N/A,,Partly Cloudy,150,2013-09-16 23:00:00
7:30 AM,78.8,73.4,83,29.83,6.2,SE,4.6,-,N/A,,Partly Cloudy,140,2013-09-16 23:30:00
8:00 AM,85,76,67,29.84,6,Calm,Calm,,,,Scattered Clouds,,2013-09-17 00:00:00
8:00 AM,84.2,75.2,74,29.83,6.2,Calm,Calm,-,N/A,,Partly Cloudy,0,2013-09-17 00:00:00
8:30 AM,86.0,75.2,70,29.83,6.2,SSE,1.2,-,N/A,,Partly Cloudy,150,2013-09-17 00:30:00
9:00 AM,86.0,73.4,66,29.83,6.2,SW,3.5,-,N/A,,Partly Cloudy,220,2013-09-17 01:00:00
9:30 AM,87.8,73.4,62,29.83,6.2,WNW,3.5,-,N/A,,Partly Cloudy,290,2013-09-17 01:30:00
10:00 AM,87.8,73.4,62,29.83,6.2,NNE,3.5,-,N/A,,Scattered Clouds,30,2013-09-17 02:00:00
10:30 AM,89.6,75.2,62,29.80,6.2,WSW,3.5,-,N/A,,Scattered Clouds,240,2013-09-17 02:30:00
11:00 AM,88,74,56,29.80,6,ESE,4.6,,,,Partly Cloudy,120,2013-09-17 03:00:00
11:00 AM,87.8,77.0,70,29.77,6.2,ESE,4.6,-,N/A,,Scattered Clouds,110,2013-09-17 03:00:00
11:30 AM,89.6,73.4,59,29.77,6.2,SSE,4.6,-,N/A,,Scattered Clouds,160,2013-09-17 03:30:00
12:00 PM,87.8,77.0,70,29.77,6.2,NNE,5.8,-,N/A,,Scattered Clouds,30,2013-09-17 04:00:00
12:30 PM,84.2,77.0,79,29.74,5.6,North,10.4,-,N/A,Rain,Light Rain,10,2013-09-17 04:30:00
1:00 PM,84.2,77.0,79,29.77,4.3,NNW,6.9,-,N/A,Rain,Light Rain,330,2013-09-17 05:00:00
1:30 PM,75.2,73.4,94,29.74,1.2,NW,8.1,-,N/A,Rain-Thunderstorm,Thunderstorms and Rain,310,2013-09-17 05:30:00
2:00 PM,77,75,91,29.74,2,North,3.5,,,Rain-Thunderstorm,Thunderstorms and Rain,10,2013-09-17 06:00:00
2:00 PM,77.0,75.2,94,29.74,1.9,SW,2.3,-,N/A,Rain-Thunderstorm,Thunderstorms and Rain,230,2013-09-17 06:00:00
2:30 PM,77.0,73.4,89,29.71,3.1,East,2.3,-,N/A,Rain,Light Rain,80,2013-09-17 06:30:00
3:00 PM,77.0,75.2,94,29.71,5.0,SE,4.6,-,N/A,,Scattered Clouds,140,2013-09-17 07:00:00
3:30 PM,78.8,75.2,89,29.71,5.0,SE,3.5,-,N/A,,Scattered Clouds,140,2013-09-17 07:30:00
4:00 PM,80.6,75.2,84,29.71,5.6,ESE,4.6,-,N/A,,Scattered Clouds,120,2013-09-17 08:00:00
5:00 PM,77,74,86,29.72,6,SE,6.9,,,Rain,Light Rain,130,2013-09-17 09:00:00
5:00 PM,77.0,73.4,89,29.71,5.6,SE,6.9,-,N/A,,Scattered Clouds,130,2013-09-17 09:00:00
5:30 PM,77.0,73.4,89,29.71,5.6,SSE,2.3,-,N/A,,Scattered Clouds,160,2013-09-17 09:30:00
6:00 PM,77.0,73.4,89,29.74,5.6,ENE,3.5,-,N/A,,Scattered Clouds,70,2013-09-17 10:00:00
6:30 PM,77.0,73.4,89,29.74,5.6,ESE,2.3,-,N/A,,Scattered Clouds,110,2013-09-17 10:30:00
7:00 PM,77.0,73.4,89,29.77,5.6,NNE,2.3,-,N/A,,Scattered Clouds,30,2013-09-17 11:00:00
7:30 PM,77.0,75.2,94,29.77,5.0,North,3.5,-,N/A,,Scattered Clouds,10,2013-09-17 11:30:00
8:00 PM,74,72,91,29.80,4,West,5.8,,,Rain,Light Rain,260,2013-09-17 12:00:00
8:30 PM,73.4,71.6,94,29.80,3.7,South,2.3,-,N/A,,Scattered Clouds,180,2013-09-17 12:30:00
9:00 PM,73.4,71.6,94,29.80,3.7,NNE,1.2,-,N/A,,Scattered Clouds,20,2013-09-17 13:00:00
9:30 PM,73.4,71.6,94,29.80,5.6,NNE,4.6,-,N/A,,Scattered Clouds,30,2013-09-17 13:30:00
10:00 PM,73.4,71.6,94,29.80,5.6,NNE,4.6,-,N/A,,Scattered Clouds,30,2013-09-17 14:00:00
10:30 PM,75.2,71.6,89,29.80,5.6,South,4.6,-,N/A,,Scattered Clouds,170,2013-09-17 14:30:00
11:00 PM,74,72,93,29.81,6,South,3.5,,,,Partly Cloudy,180,2013-09-17 15:00:00
11:00 PM,75.2,71.6,89,29.80,5.6,South,3.5,-,N/A,,Scattered Clouds,180,2013-09-17 15:00:00